STARLINK-34102, 63806

Orbit data source: Space-Track

STARLINK-34102, 63806 is a payload satellite owned by SpaceX/Seattle (US) in LEO that was launched on Sun, 04 May 2025 UTC via an FALCON 9 launch vehicle from the Air Force Eastern Test Range (AFETR). Payload-class satellites include a variety of spacecraft equipped with specific instruments for various scientific and technological missions. These include communications satellites like Starlink; space stations such as the ISS; scientific satellites like the Hubble; Earth observation satellites from companies like Planet Labs, Umbra, and HawkEye 360; GPS; miniature CubeSats for education and research; and military/defense satellites.

Loading next visibility...
Identifier
63806, 2025-092C
Orbit
LEO
Last TLE update
9 hours ago
Origin
Manufacturer
SpaceX/Seattle
Mission
Operational spacecraft
Bus & Motor
STARLINK V2MO, Unknown motor
Mass
575 kg wet, ~530 kg dry
Launch date (UTC)
2025-05-04 (2 months ago)
Launch vehicle
FALCON 9
Launch site
Air Force Eastern Test Range (AFETR)
Object type
Payload
Rocket body
Debris
Shape & HBR
Unknown
Radar Cross Section
Large (>1 m²)

Expand to show TLE details & history

TLE from 9 hours ago
0 STARLINK-34102
1 63806U 25092C   25169.91668981 -.01377306  00000-0 -47101-1 0  9995
2 63806  43.0012 222.5812 0001818 255.0621 317.0472 15.32604558  8311
Epoch: 2025-06-18T22:00Z
TLE epoch observation values (Epoch: 2025-06-18T22:00:01.999Z)
Latitude
-21.40548°
Longitude
-170.10862°
Altitude
472.03 km
Speed
7.631 km/s
True Right ascension
04h 29m 09s
True Declination
-21° 17' 02"
Sunlit
Object was in daylight at epoch
Visualization orbit readout
Latitude
27.28335°
Longitude
129.66436°
Altitude
472.311 km
Speed
7.634 km/s
Apparent Right ascension
02h 50m 00s
Apparent Declination
-6° 28' 21"
Sunlit
Object is in daylight
Visualization observer readout
Local Sidereal Time
17:54:34
Azimuth
63.623° ENE
Elevation
-36.896°
Doppler factor
1
Orbital elements
Apogee altitude
471.239 km
Perigee altitude
468.749 km
Semi-major axis
6,848.131 km
Eccentricity
0.00018
Inclination
43.0012°
RAAN
222.5812°
Arg. of periapsis
255.0621°
True anomaly
Unknown
Mean anomaly
317.0472°
Eccentric anomaly
Unknown
Mean motion
3.82988 °/min
Orbital period
94 mins
BSTAR
-0.047101
Loading maneuver chart data...
Loading SW <> Apogee altitude chart data...
Loading historical data...
Loading historical data...
Loading historical data...
Loading historical data...
Loading historical data...
Loading historical data...
Loading historical data...

STARLINK-34102 Visibility forecast

Observer location: undefined°, undefined°

Span
Click to sort rows by Start time (UTC) header in descending order
Start Az.
Max El. time (UTC)
Max El. Az.
Max El.
End time (UTC)
End Az.
6 mins2025-06-19 08:17:59.255Z258.588° W2025-06-19 08:20:59.255Z341.789° N44.218°2025-06-19 08:23:59.255Z69.978° E
5 mins2025-06-19 09:57:59.255Z295.43° NW2025-06-19 09:59:59.255Z5.844° NNE37.903°2025-06-19 10:02:59.255Z77.262° E
5 mins2025-06-19 11:36:59.255Z286.001° WNW2025-06-19 11:38:59.255Z142.684° SSE44.494°2025-06-19 11:41:59.255Z112.263° ESE
4 mins2025-06-20 06:10:59.255Z182.603° SSW2025-06-20 06:11:59.255Z157.327° SSE24.484°2025-06-20 06:14:59.255Z92.829° ESE
|